Regional Weather Roundup
Issued by NWS

Home | Current Version | Previous Version | Graphics & Text | Print | Product List | Glossary On
Versions: 1 2 3 4 5 6 7 8 9 10 11 12 13 14 15 16 17 18 19 20 21 22 23 24 25 26 27 28 29 30 31 32 33 34 35 36 37 38 39 40 41 42 43 44 45 46 47 48 49 50
000
ASUS43 KBIS 020620
RWRND

NORTH DAKOTA REGIONAL WEATHER ROUNDUP
NATIONAL WEATHER SERVICE BISMARCK ND
100 AM CDT SAT AUG 02 2014

NOTE: "FAIR" INDICATES FEW OR NO CLOUDS BELOW 12,000 FEET WITH NO
SIGNIFICANT WEATHER AND/OR OBSTRUCTIONS TO VISIBILITY.


NDZ001>003-009>011-017-020700-
NORTHWEST NORTH DAKOTA

CITY           SKY/WX    TMP DP  RH WIND       PRES   REMARKS
WILLISTON      MOCLDY    69  54  58 SE5       30.08F
6HR MIN TEMP:  65; 6HR MAX TEMP:  84;

MINOT          CLEAR     61  58  90 NW3       30.09R
MINOT AFB      CLEAR     59  59  99 W5        30.09R
$$

NDZ018>021-031>035-040>046-020700-
SOUTHWEST NORTH DAKOTA

CITY           SKY/WX    TMP DP  RH WIND       PRES   REMARKS
BISMARCK       PTCLDY    64  62  93 CALM      30.11R
6HR MIN TEMP:  63; 6HR MAX TEMP:  83; 6HR PCP:  1.16;

DICKINSON      CLEAR     61  56  83 CALM      30.13R
GARRISON         N/A     60  58  92 CALM      30.10R
6HR MIN TEMP:  60; 6HR MAX TEMP:  80;

HETTINGER ARPT CLEAR     64  58  80 E14       30.13R
$$

NDZ004>008-012>016-024-026-027-054-020700-
NORTHEAST NORTH DAKOTA

CITY           SKY/WX    TMP DP  RH WIND       PRES   REMARKS
GRAND FORKS    CLEAR     62  58  86 S3        30.07R
GRND FRKS AFB  CLEAR     61  61 100 S2        30.08R
DEVILS LAKE    CLEAR     68  57  68 S7        30.09S
$$

NDZ022-023-025-028>030-036>039-047>053-020700-
SOUTHEAST NORTH DAKOTA

CITY           SKY/WX    TMP DP  RH WIND       PRES   REMARKS
FARGO          CLEAR     65  61  87 CALM      30.09R
6HR MIN TEMP:  63; 6HR MAX TEMP:  81;

JAMESTOWN      CLOUDY    68  58  70 SE6       30.10R
$$




USA.gov is the U.S. government's official web portal to all federal, state and local government web resources and services.